This is the latest recevied weather packets stored in our database for station/object W1RCY. If no packets are shown the sender has not sent any weather packets the latest 10 day(s).
| Time | Temp. | Humidity | Pressure | Rain* | Wind** | Luminosity | Snow |
|---|---|---|---|---|---|---|---|
| 1777749934 | 7.78° C | 99% | 1009.2 hPa | 1.27 mm | - | 57 W/m² | - |
| 1777749632 | 7.78° C | 99% | 1009.3 hPa | 0 mm | - | 66 W/m² | - |
| 1777749328 | 7.78° C | 99% | 1009.3 hPa | 0 mm | - | 64 W/m² | - |
| 1777749027 | 7.78° C | 99% | 1009.2 hPa | 0 mm | - | 58 W/m² | - |
| 1777748724 | 7.78° C | 99% | 1009.3 hPa | 0 mm | - | 64 W/m² | - |
| 1777748421 | 7.78° C | 99% | 1009.5 hPa | 1.78 mm | - | 104 W/m² | - |
| 1777748115 | 7.78° C | 98% | 1009.5 hPa | 1.78 mm | - | 118 W/m² | - |
| 1777747813 | 8.33° C | 98% | 1009.4 hPa | 0 mm | - | 61 W/m² | - |
| 1777747508 | 8.33° C | 98% | 1009.7 hPa | 1.27 mm | - | 90 W/m² | - |
| 1777747205 | 8.33° C | 97% | 1009.6 hPa | 3.05 mm | - | 93 W/m² | - |
| 1777746901 | 8.33° C | 97% | 1009.8 hPa | 1.78 mm | - | 104 W/m² | - |
| 1777746596 | 8.89° C | 97% | 1009.9 hPa | 1.78 mm | - | 92 W/m² | - |
| 1777746292 | 8.33° C | 96% | 1009.7 hPa | 1.78 mm | - | 89 W/m² | - |
| 1777745988 | 8.89° C | 96% | 1009.7 hPa | 0 mm | - | 75 W/m² | - |
| 1777745687 | 8.89° C | 95% | 1009.7 hPa | 1.27 mm | - | 73 W/m² | - |
| 1777745385 | 8.89° C | 94% | 1009.7 hPa | 3.05 mm | - | 81 W/m² | - |
| 1777745082 | 8.89° C | 93% | 1009.6 hPa | 1.78 mm | - | 111 W/m² | - |
| 1777744778 | 8.89° C | 92% | 1009.9 hPa | 1.27 mm | - | 87 W/m² | - |
| 1777744472 | 8.89° C | 90% | 1009.6 hPa | 1.27 mm | - | 70 W/m² | - |
| 1777744169 | 8.89° C | 89% | 1009.5 hPa | 0 mm | - | 75 W/m² | - |
| 1777743866 | 8.89° C | 88% | 1009.6 hPa | 0 mm | - | 60 W/m² | - |
| 1777743562 | 8.89° C | 88% | 1009.8 hPa | 0 mm | - | 33 W/m² | - |
| 1777743259 | 8.89° C | 88% | 1009.9 hPa | 0 mm | - | 30 W/m² | - |
| 1777742958 | 8.89° C | 88% | 1009.7 hPa | 0 mm | - | 46 W/m² | - |
| 1777742655 | 9.44° C | 87% | 1009.7 hPa | 0 mm | - | 43 W/m² | - |
* Rain latest hour (hover to see other rain measurements)
** Current wind speed in m/s (hover to see current wind gust speed)